User: anonymous   Login
Location: �chenoz-la-M�line
(47.6009°N, 6.1354°E)
Time: 22:53:47
(UTC+00:00)
Language:

Cosmos 1328 - Orbit

View from above orbital plane
View from above orbital plane
View from above satellite
View from above satellite

Ground track
Ground track

The orbit data is extracted from the following two-line orbital elements,

1 12987U 81117A   21103.13718137  .00000639  00000-0  39149-4 0  9991
2 12987  82.5091 321.4959 0019115 251.8904 108.0243 15.08306403142851
Epoch (UTC): 13 April 2021 03:17:32
Eccentricity: 0.0019115
inclination: 82.5091°
perigee height: 528 km
apogee height: 554 km
right ascension of ascending node: 321.4959°
argument of perigee: 251.8904°
revolutions per day: 15.08306403
mean anomaly at epoch: 108.0243°
orbit number at epoch: 14285

The dashed part of the orbit path shows where the satellite is in the earth's shadow,  

DLR